When you browse on this site, cookies collect data to enhance your experience and personalize the content and advertising you see.
Visit our Privacy Policy to learn more. By continuing to use the site, you agree to this use of cookies and data.
  • In Czech Republic
  • List of Countries
  • For 7 days
  • Water Temperature
  • Weather Map
  • Weather Widgets
  • user-avatar
    Login

    Hourly Weather Deputatskiy

    Today, 2 June, Tuesday

    Time Temperature Precipitation Wind Pressure Humidity
    00:00 +5°C° 0 mm 1 mps 715 mmHg 63%
    01:00 +5°C° 0 mm 1 mps 715 mmHg 64%
    02:00 +5°C° 0 mm 1 mps 715 mmHg 65%
    03:00 +5°C° 0 mm 0 mps 715 mmHg 64%
    04:00 +7°C° 0 mm 1 mps 715 mmHg 60%
    05:00 +8°C° 0 mm 1 mps 715 mmHg 56%
    06:00 +9°C° 0 mm 1 mps 716 mmHg 51%
    07:00 +9°C° 0 mm 2 mps 716 mmHg 48%
    08:00 +10°C° 0 mm 2 mps 716 mmHg 44%
    09:00 +11°C° 0 mm 3 mps 716 mmHg 40%
    10:00 +12°C° 0 mm 2 mps 715 mmHg 37%
    11:00 +13°C° 0 mm 2 mps 715 mmHg 35%
    12:00 +13°C° 0 mm 2 mps 715 mmHg 33%
    13:00 +14°C° 0.1 mm 2 mps 715 mmHg 33%
    14:00 +13°C° 0.1 mm 3 mps 715 mmHg 34%
    15:00 +13°C° 0.1 mm 3 mps 715 mmHg 34%
    16:00 +13°C° 0.3 mm 3 mps 715 mmHg 38%
    17:00 +12°C° 0.3 mm 4 mps 715 mmHg 41%
    18:00 +12°C° 0.3 mm 4 mps 715 mmHg 45%
    19:00 +11°C° 0.2 mm 4 mps 715 mmHg 50%
    20:00 +10°C° 0.2 mm 3 mps 715 mmHg 55%
    21:00 +10°C° 0.2 mm 3 mps 715 mmHg 61%
    22:00 +8°C° 0.2 mm 2 mps 715 mmHg 65%
    23:00 +8°C° 0.2 mm 1 mps 714 mmHg 69%

    Tomorrow, 3 June, Wednesday

    Time Temperature Precipitation Wind Pressure Humidity
    00:00 +7°C° 0.2 mm 1 mps 714 mmHg 74%
    01:00 +7°C° 0 mm 1 mps 714 mmHg 73%
    02:00 +7°C° 0 mm 1 mps 714 mmHg 72%
    03:00 +8°C° 0 mm 1 mps 715 mmHg 71%
    04:00 +9°C° 0 mm 1 mps 715 mmHg 65%
    05:00 +10°C° 0 mm 1 mps 715 mmHg 60%
    06:00 +10°C° 0 mm 2 mps 716 mmHg 54%
    07:00 +12°C° 0 mm 2 mps 715 mmHg 50%
    08:00 +12°C° 0 mm 3 mps 715 mmHg 45%
    09:00 +13°C° 0 mm 3 mps 715 mmHg 40%
    10:00 +13°C° 0.1 mm 3 mps 715 mmHg 37%
    11:00 +14°C° 0.1 mm 3 mps 715 mmHg 35%
    12:00 +14°C° 0.1 mm 3 mps 716 mmHg 32%
    13:00 +14°C° 0.1 mm 3 mps 715 mmHg 36%
    14:00 +13°C° 0.1 mm 3 mps 715 mmHg 39%
    15:00 +13°C° 0.1 mm 3 mps 715 mmHg 43%
    16:00 +13°C° 0.1 mm 3 mps 715 mmHg 43%
    17:00 +12°C° 0.1 mm 3 mps 716 mmHg 44%
    18:00 +12°C° 0.1 mm 3 mps 716 mmHg 45%
    19:00 +12°C° 0.1 mm 2 mps 716 mmHg 51%
    20:00 +10°C° 0.1 mm 2 mps 716 mmHg 58%
    21:00 +9°C° 0.1 mm 2 mps 716 mmHg 64%
    22:00 +8°C° 0.1 mm 2 mps 716 mmHg 70%
    23:00 +8°C° 0.1 mm 2 mps 716 mmHg 76%

    Day after tomorrow, 4 June, Thursday

    Time Temperature Precipitation Wind Pressure Humidity
    00:00 +7°C° 0.1 mm 3 mps 716 mmHg 82%
    01:00 +7°C° 0.4 mm 3 mps 716 mmHg 83%
    02:00 +7°C° 0.4 mm 3 mps 717 mmHg 84%
    03:00 +5°C° 0.4 mm 3 mps 717 mmHg 85%
    04:00 +7°C° 0.3 mm 2 mps 717 mmHg 83%
    05:00 +7°C° 0.3 mm 2 mps 717 mmHg 81%
    06:00 +7°C° 0.3 mm 2 mps 718 mmHg 79%
    07:00 +7°C° 0.5 mm 2 mps 718 mmHg 80%
    08:00 +7°C° 0.5 mm 2 mps 718 mmHg 80%
    09:00 +7°C° 0.5 mm 2 mps 718 mmHg 81%
    10:00 +7°C° 0.3 mm 2 mps 718 mmHg 81%
    11:00 +8°C° 0.3 mm 1 mps 718 mmHg 80%
    12:00 +8°C° 0.3 mm 1 mps 718 mmHg 80%
    13:00 +8°C° 0.1 mm 1 mps 718 mmHg 77%
    14:00 +9°C° 0.1 mm 1 mps 718 mmHg 73%
    15:00 +9°C° 0.1 mm 1 mps 718 mmHg 70%
    16:00 +9°C° 0 mm 2 mps 718 mmHg 67%
    17:00 +9°C° 0 mm 2 mps 719 mmHg 64%
    18:00 +9°C° 0 mm 2 mps 719 mmHg 61%
    19:00 +10°C° 0 mm 1 mps 719 mmHg 66%
    20:00 +9°C° 0 mm 1 mps 719 mmHg 71%
    21:00 +7°C° 0 mm 0 mps 719 mmHg 75%
    22:00 +6°C° 0 mm 0 mps 719 mmHg 79%
    23:00 +5°C° 0 mm 0 mps 719 mmHg 83%

    5 June, Friday

    Time Temperature Precipitation Wind Pressure Humidity
    00:00 +4°C° 0 mm 0 mps 719 mmHg 87%
    01:00 +4°C° 0 mm 0 mps 719 mmHg 86%
    02:00 +5°C° 0 mm 0 mps 719 mmHg 85%
    03:00 +5°C° 0 mm 0 mps 719 mmHg 85%
    04:00 +6°C° 0 mm 0 mps 719 mmHg 77%
    05:00 +7°C° 0 mm 0 mps 719 mmHg 70%
    06:00 +9°C° 0 mm 1 mps 719 mmHg 63%
    07:00 +10°C° 0 mm 1 mps 719 mmHg 57%
    08:00 +11°C° 0 mm 1 mps 719 mmHg 51%
    09:00 +12°C° 0 mm 1 mps 719 mmHg 45%
    10:00 +12°C° 0 mm 1 mps 719 mmHg 43%
    11:00 +13°C° 0 mm 1 mps 719 mmHg 40%
    12:00 +13°C° 0 mm 1 mps 719 mmHg 38%
    13:00 +14°C° 0 mm 1 mps 719 mmHg 36%
    14:00 +14°C° 0 mm 1 mps 719 mmHg 34%
    15:00 +15°C° 0 mm 1 mps 718 mmHg 33%
    16:00 +15°C° 0 mm 1 mps 719 mmHg 33%
    17:00 +15°C° 0 mm 2 mps 719 mmHg 33%
    18:00 +15°C° 0 mm 2 mps 719 mmHg 33%
    19:00 +14°C° 0 mm 2 mps 719 mmHg 39%
    20:00 +13°C° 0 mm 2 mps 719 mmHg 44%
    21:00 +12°C° 0 mm 2 mps 718 mmHg 49%
    22:00 +10°C° 0 mm 2 mps 718 mmHg 54%
    23:00 +9°C° 0 mm 1 mps 718 mmHg 60%

    6 June, Saturday

    Time Temperature Precipitation Wind Pressure Humidity
    00:00 +8°C° 0 mm 1 mps 718 mmHg 65%
    01:00 +8°C° 0 mm 1 mps 718 mmHg 65%
    02:00 +8°C° 0 mm 0 mps 718 mmHg 65%
    03:00 +8°C° 0 mm 0 mps 718 mmHg 65%
    04:00 +10°C° 0 mm 1 mps 718 mmHg 61%
    05:00 +11°C° 0 mm 1 mps 718 mmHg 56%
    06:00 +12°C° 0 mm 1 mps 718 mmHg 52%
    07:00 +13°C° 0 mm 1 mps 718 mmHg 46%
    08:00 +14°C° 0 mm 1 mps 718 mmHg 40%
    09:00 +15°C° 0 mm 1 mps 718 mmHg 35%
    10:00 +16°C° 0 mm 1 mps 717 mmHg 32%
    11:00 +18°C° 0 mm 1 mps 717 mmHg 28%
    12:00 +17°C° 0 mm 0 mps 717 mmHg 25%
    13:00 +17°C° 0 mm 0 mps 717 mmHg 24%
    14:00 +20°C° 0 mm 1 mps 717 mmHg 23%
    15:00 +20°C° 0 mm 1 mps 717 mmHg 22%
    16:00 +20°C° 0 mm 1 mps 717 mmHg 22%
    17:00 +20°C° 0 mm 1 mps 717 mmHg 22%
    18:00 +20°C° 0 mm 1 mps 716 mmHg 22%
    19:00 +18°C° 0 mm 2 mps 716 mmHg 26%
    20:00 +17°C° 0 mm 2 mps 716 mmHg 30%
    21:00 +16°C° 0 mm 2 mps 716 mmHg 35%
    22:00 +14°C° 0 mm 2 mps 716 mmHg 39%
    23:00 +13°C° 0 mm 1 mps 716 mmHg 44%

    7 June, Sunday

    Time Temperature Precipitation Wind Pressure Humidity
    00:00 +10°C° 0 mm 0 mps 715 mmHg 48%
    01:00 +11°C° 0 mm 0 mps 716 mmHg 48%
    02:00 +11°C° 0 mm 0 mps 716 mmHg 49%
    03:00 +12°C° 0 mm 0 mps 716 mmHg 49%
    04:00 +14°C° 0 mm 1 mps 716 mmHg 45%
    05:00 +15°C° 0 mm 1 mps 716 mmHg 40%
    06:00 +16°C° 0 mm 1 mps 716 mmHg 36%
    07:00 +17°C° 0 mm 2 mps 716 mmHg 33%
    08:00 +18°C° 0 mm 2 mps 717 mmHg 30%
    09:00 +19°C° 0 mm 2 mps 717 mmHg 28%
    10:00 +19°C° 0 mm 3 mps 717 mmHg 25%
    11:00 +20°C° 0 mm 3 mps 716 mmHg 23%
    12:00 +21°C° 0 mm 4 mps 716 mmHg 21%
    13:00 +21°C° 0 mm 4 mps 716 mmHg 20%
    14:00 +21°C° 0 mm 4 mps 716 mmHg 20%
    15:00 +21°C° 0 mm 4 mps 716 mmHg 19%
    16:00 +21°C° 0 mm 4 mps 716 mmHg 21%
    17:00 +21°C° 0 mm 4 mps 716 mmHg 22%
    18:00 +20°C° 0 mm 5 mps 716 mmHg 23%
    19:00 +19°C° 0 mm 4 mps 716 mmHg 28%
    20:00 +18°C° 0 mm 3 mps 716 mmHg 32%
    21:00 +17°C° 0 mm 2 mps 716 mmHg 36%
    22:00 +16°C° 0 mm 2 mps 716 mmHg 43%
    23:00 +14°C° 0 mm 1 mps 716 mmHg 50%
    Show more